This demonstration page uses our WeatherBlox Daily Observations layout. Learn more.

Left ArrowRight Arrow

Hourly Observations for February 7, 2021

Temp ( °F °C ) Dew Point ( °F °C ) Humidity (%) Winds ( mph kmh ) Pressure ( in mb ) Visibility ( mi km ) Precip ( " mm )
12:15 am 00:15 Cloudy with Light Snow 6 -14.2 2 -16.5 83 83 SE 9 15 30.30 1026 1 2 0.00 0.00
12:35 am 00:35 Cloudy with Light Snow 6 -14.2 2 -16.5 83 83 SE 9 15 30.29 1026 1 2 0.00 0.00
12:55 am 00:55 Cloudy with Snow 6 -14.3 2 -16.6 83 83 ESE 10 17 30.27 1025 1 2 0.00 0.00
1:15 am 01:15 Cloudy with Snow 6 -14.6 1 -17 82 82 SE 9 15 30.28 1025 1 1 0.00 0.00
1:35 am 01:35 Cloudy with Snow 6 -14.5 2 -16.8 83 83 SE 8 13 30.29 1026 1 2 0.00 0.00
1:55 am 01:55 Cloudy with Light Snow 6 -14.6 1 -17 82 82 SE 9 15 30.29 1026 2 2 0.00 0.00
2:15 am 02:15 Cloudy with Light Snow 6 -14.7 1 -17 83 83 SE 10 17 30.29 1026 2 2 0.00 0.00
2:35 am 02:35 Cloudy with Light Snow 5 -14.8 1 -17.1 83 83 ESE 12 19 30.26 1025 1 2 0.00 0.00
2:55 am 02:55 Cloudy with Light Snow 5 -14.9 1 -17.4 81 81 ESE 12 19 30.24 1024 2 3 0.00 0.00
3:15 am 03:15 Cloudy with Snow 5 -15 1 -17.4 82 82 ESE 15 24 30.23 1024 1 1 0.00 0.00
3:35 am 03:35 Cloudy with Light Snow 5 -15 1 -17.5 81 81 SE 13 20 30.25 1024 2 3 0.00 0.00
3:55 am 03:55 Cloudy with Light Snow 5 -15 1 -17.5 81 81 SE 13 20 30.25 1024 2 2 0.00 0.00
4:15 am 04:15 Cloudy with Snow 5 -15.1 1 -17.5 82 82 ESE 15 24 30.25 1024 1 1 0.00 0.00
4:35 am 04:35 Cloudy with Snow 4 -15.3 0 -17.8 81 81 SE 15 24 30.25 1024 1 1 0.00 0.00
4:55 am 04:55 Cloudy with Light Snow 4 -15.5 0 -18 81 81 SE 15 24 30.24 1024 1 2 0.00 0.00
5:15 am 05:15 Cloudy with Light Snow 4 -15.6 -1 -18.2 81 81 SE 17 28 30.24 1024 1 2 0.00 0.00
5:35 am 05:35 Cloudy with Light Snow 4 -15.8 -1 -18.3 81 81 ESE 16 26 30.25 1025 2 2 0.00 0.00
5:55 am 05:55 Cloudy with Light Snow 3 -16 -1 -18.5 81 81 ESE 16 26 30.25 1024 1 2 0.00 0.00
6:15 am 06:15 Cloudy with Light Snow 3 -16 -1 -18.5 81 81 ESE 13 20 30.26 1025 2 3 0.00 0.00
6:35 am 06:35 Cloudy with Light Snow 3 -16.2 -2 -18.8 81 81 ESE 16 26 30.26 1025 3 4 0.00 0.00
6:55 am 06:55 Cloudy with Light Snow 3 -16.3 -2 -19 80 80 ESE 16 26 30.26 1025 2 3 0.00 0.00
7:15 am 07:15 Cloudy with Light Snow 2 -16.5 -3 -19.2 80 80 ESE 17 28 30.26 1025 2 3 0.00 0.00
7:35 am 07:35 Cloudy with Light Snow 2 -16.6 -3 -19.3 80 80 ESE 16 26 30.26 1025 3 4 0.00 0.00
7:55 am 07:55 Cloudy with Light Snow 2 -16.7 -3 -19.4 80 80 ESE 18 30 30.26 1025 2 2 0.00 0.00
8:15 am 08:15 Cloudy with Light Snow 2 -16.8 -3 -19.5 80 80 ESE 17 28 30.27 1025 1 1 0.00 0.00
8:35 am 08:35 Cloudy with Light Snow 2 -16.7 -3 -19.5 79 79 ESE 16 26 30.26 1025 1 2 0.00 0.00
8:55 am 08:55 Cloudy with Light Snow 2 -16.7 -4 -19.8 77 77 ESE 15 24 30.28 1026 3 5 0.00 0.00
9:15 am 09:15 Cloudy with Light Snow 2 -16.7 -3 -19.6 78 78 ESE 16 26 30.29 1026 1 2 0.00 0.00
9:35 am 09:35 Cloudy with Snow 2 -16.5 -3 -19.5 78 78 ESE 15 24 30.29 1026 1 1 0.00 0.00
9:55 am 09:55 Cloudy with Light Snow 2 -16.5 -3 -19.6 77 77 ESE 14 22 30.29 1026 1 2 0.00 0.00
10:15 am 10:15 Cloudy with Light Snow 2 -16.4 -3 -19.5 77 77 ESE 14 22 30.28 1025 1 2 0.00 0.00
10:35 am 10:35 Cloudy with Light Snow 3 -16.3 -3 -19.5 77 77 ESE 17 28 30.27 1025 2 3 0.00 0.00
10:55 am 10:55 Cloudy with Light Snow 3 -16.2 -3 -19.5 76 76 ESE 15 24 30.27 1025 4 6 0.00 0.00
11:15 am 11:15 Cloudy with Light Snow 3 -16 -3 -19.2 77 77 SE 17 28 30.27 1025 4 6 0.00 0.00
11:35 am 11:35 Cloudy with Light Snow 3 -16.1 -3 -19.5 75 75 SE 16 26 30.26 1025 5 8 0.00 0.00
11:55 am 11:55 Cloudy with Light Snow 3 -16.1 -3 -19.5 75 75 SE 18 30 30.26 1025 5 8 0.00 0.00
12:15 pm 12:15 Cloudy with Light Snow 3 -16.1 -3 -19.5 75 75 ESE 17 28 30.26 1025 5 8 0.00 0.00
12:35 pm 12:35 Cloudy with Light Snow 3 -16 -3 -19.2 77 77 SE 13 20 30.23 1024 3 5 0.00 0.00
12:55 pm 12:55 Cloudy with Light Snow 3 -16 -3 -19.3 76 76 SE 14 22 30.22 1023 4 6 0.00 0.00
1:15 pm 13:15 Cloudy with Light Snow 3 -16 -3 -19.2 77 77 SE 14 22 30.22 1023 4 6 0.00 0.00
1:35 pm 13:35 Cloudy with Light Snow 4 -15.7 -2 -19.1 75 75 ESE 14 22 30.20 1023 4 6 0.00 0.00
1:55 pm 13:55 Cloudy with Light Snow 4 -15.8 -3 -19.2 75 75 ESE 14 22 30.20 1023 5 8 0.00 0.00
2:15 pm 14:15 Cloudy with Light Snow 4 -15.8 -2 -19.1 76 76 ESE 14 22 30.20 1023 4 6 0.00 0.00
2:35 pm 14:35 Cloudy with Light Snow 4 -15.8 -2 -19.1 76 76 SE 12 19 30.20 1023 5 8 0.00 0.00
2:55 pm 14:55 Cloudy 3 -16 -3 -19.3 76 76 ESE 14 22 30.20 1023 7 11 0.00 0.00
3:15 pm 15:15 Cloudy 3 -16 -3 -19.2 77 77 ESE 9 15 30.21 1023 10 16 0.00 0.00
3:35 pm 15:35 Cloudy 3 -16 -3 -19.2 77 77 E 12 19 30.22 1023 10 16 0.00 0.00
3:55 pm 15:55 Cloudy 3 -16 -3 -19.3 76 76 E 12 19 30.24 1024 10 16 0.00 0.00
4:15 pm 16:15 Cloudy 3 -16 -3 -19.2 77 77 E 8 13 30.25 1024 7 11 0.00 0.00
4:35 pm 16:35 Cloudy 3 -16.1 -3 -19.4 76 76 E 9 15 30.24 1024 10 16 0.00 0.00
4:55 pm 16:55 Cloudy with Light Snow 3 -16.2 -3 -19.3 77 77 E 8 13 30.25 1024 7 11 0.00 0.00
5:15 pm 17:15 Cloudy with Light Snow 3 -16.3 -3 -19.4 77 77 E 7 11 30.26 1025 10 16 0.00 0.00
5:35 pm 17:35 Cloudy with Light Snow 2 -16.5 -3 -19.5 78 78 ENE 7 11 30.28 1025 10 16 0.00 0.00
5:55 pm 17:55 Cloudy with Light Snow 2 -16.5 -3 -19.5 78 78 NE 8 13 30.28 1025 10 16 0.00 0.00
6:15 pm 18:15 Cloudy with Light Snow 2 -16.7 -3 -19.5 79 79 NE 8 13 30.28 1026 5 8 0.00 0.00
6:35 pm 18:35 Cloudy with Light Snow 2 -16.7 -3 -19.6 78 78 NE 8 13 30.30 1026 10 16 0.00 0.00
6:55 pm 18:55 Cloudy with Light Snow 2 -16.7 -3 -19.7 78 78 ENE 7 11 30.31 1027 10 16 0.00 0.00
7:15 pm 19:15 Cloudy with Light Snow 2 -16.7 -3 -19.7 78 78 NE 5 7 30.33 1027 10 16 0.00 0.00
7:35 pm 19:35 Cloudy 2 -16.7 -3 -19.6 78 78 NNE 6 9 30.34 1028 10 16 0.00 0.00
7:55 pm 19:55 Cloudy with Light Snow 2 -16.7 -3 -19.7 78 78 NE 7 11 30.36 1028 10 16 0.00 0.00
8:15 pm 20:15 Cloudy with Light Snow 2 -16.6 -3 -19.5 78 78 NE 5 7 30.36 1028 10 16 0.00 0.00
8:35 pm 20:35 Cloudy with Light Snow 2 -16.6 -3 -19.6 78 78 NE 5 7 30.36 1028 10 16 0.00 0.00
8:55 pm 20:55 Cloudy with Light Snow 2 -16.6 -3 -19.6 78 78 ENE 6 9 30.36 1028 10 16 0.00 0.00
9:15 pm 21:15 Cloudy with Light Snow 2 -16.6 -3 -19.7 77 77 NE 5 7 30.36 1028 4 6 0.00 0.00
9:35 pm 21:35 Cloudy with Light Snow 2 -16.5 -3 -19.2 80 80 NNE 3 6 30.38 1029 3 5 0.00 0.00
9:55 pm 21:55 Cloudy 2 -16.5 -3 -19.4 78 78 NNE 5 7 30.39 1029 10 16 0.00 0.00
10:15 pm 22:15 Cloudy 3 -16.3 -3 -19.3 78 78 N 7 11 30.39 1029 10 16 0.00 0.00
10:35 pm 22:35 Cloudy with Light Snow 3 -16.2 -3 -19.2 78 78 N 7 11 30.39 1029 7 11 0.00 0.00
10:55 pm 22:55 Cloudy with Light Snow 3 -16.2 -2 -19.1 79 79 NNE 5 7 30.39 1029 2 3 0.00 0.00
11:15 pm 23:15 Cloudy with Light Snow 3 -16.2 -3 -19.2 78 78 N 6 9 30.38 1029 7 11 0.00 0.00
11:35 pm 23:35 Cloudy 3 -16.2 -3 -19.2 78 78 NNE 6 9 30.37 1028 10 16 0.00 0.00
11:55 pm 23:55 Cloudy 3 -16.2 -2 -19.1 79 79 NNE 6 9 30.38 1029 10 16 0.00 0.00

Powered by AerisWeather